Location: Unspecified
(0.0000°N, 0.0000°E)
Time: 22:00:45
(UTC+02:00)

Envisat - Visible Passes

Search period start: 15 June 2021 00:00
Search period end: 25 June 2021 00:00
Orbit: 764 x 766 km, 98.1° (Epoch: 15 June)

Date Brightness Start Highest point End Pass type
(mag) Time Alt. Az. Time Alt. Az. Time Alt. Az.
15 Jun 5.4 06:08:03 10° ENE 06:11:30 18° ESE 06:14:57 10° SE visible
16 Jun 3.0 07:08:27 10° N 07:13:30 74° WNW 07:18:34 10° SSW visible
17 Jun 4.3 06:32:06 10° NE 06:36:47 38° ESE 06:41:27 10° S visible
18 Jun 5.7 05:57:42 10° ENE 06:00:04 13° ESE 06:02:26 10° SE visible
18 Jun 3.7 07:34:13 10° NNW 07:38:47 35° WNW 07:43:23 10° SW visible
19 Jun 3.1 06:57:00 10° NNE 07:02:03 81° ESE 07:07:09 10° S visible
20 Jun 4.9 06:21:04 10° NE 06:25:20 28° ESE 06:29:37 10° SSE visible
21 Jun 3.3 07:22:30 10° N 07:27:21 48° WNW 07:32:14 10° SSW visible
22 Jun 3.6 06:45:39 10° NNE 06:50:38 58° ESE 06:55:37 10° S visible
23 Jun 5.3 06:10:13 10° NE 06:13:54 20° ESE 06:17:36 10° SSE visible
24 Jun 3.0 07:10:54 10° N 07:15:55 67° WNW 07:20:58 10° SSW visible
